Location: Allaines
(49.9632°N, 2.9458°E)
Time: 16:49:18
(UTC+00:00)

SPOT 5 - Pass Details

Date: 09 April 2020
Orbit: 624 x 814 km, 98.3° (Epoch: 03 June)

Event Time Altitude Azimuth Distance (km) Brightness Sun altitude
Exits shadow 22:10:49 33° 273° (W) 1,065 3.9 -28.2°
Drops below altitude 10° 22:14:25 10° 328° (NNW) 2,010 6.1 -28.4°
Sets 22:16:48 0° 339° (NNW) 2,929 7.3 -28.6°
